North Adams, MA

6:07 PM EDT on June 23, 2017 (GMT -0400)
Harriman And West

Weather History for KAQW - May, 2013

Change the Weather History Date:

Sunday, May 26, 2013

  Actual Average Record
Temperature  
Mean Temperature 46 °F -  
Max Temperature 53 °F 66 °F 86 °F (2016)
Min Temperature 39 °F 45 °F 37 °F (1997)
Degree Days  
Heating Degree Days 19    
Moisture  
Dew Point 37 °F    
Average Humidity 77    
Maximum Humidity 93    
Minimum Humidity 57    
Precipitation  
Precipitation 0.18 in - - ()
Sea Level Pressure  
Sea Level Pressure 30.00 in    
Wind  
Wind Speed 6 mph (West)    
Max Wind Speed 15 mph    
Max Gust Speed 29 mph    
Visibility 7 miles    
Events Fog , Rain    
Averages and records for this station are not official NWS values.
T = Trace of Precipitation, MM = Missing Value Source: NWS Daily Summary

Daily Weather History Graph

Daily Weather History Graph

Search for Another Location

Airport or City:

Trip Planner

Search our weather history database for the weather conditions in past years. The results will help you decide how hot, cold, wet, or windy it might be!

Date:

Astronomy

May. 26, 2013 Rise Set
Actual Time 5:20 AM EDT 8:19 PM EDT
Civil Twilight 4:47 AM EDT 8:53 PM EDT
Nautical Twilight 4:04 AM EDT 9:36 PM EDT
Astronomical Twilight 3:14 AM EDT 10:26 PM EDT
Moon 10:03 PM EDT (5/26) 6:47 AM EDT (5/26)
Length of Visible Light 16h 06m
Length of Day
14h 58m
Waning Gibbous, 97% of the Moon is Illuminated
May 26
Waning Gibbous
May 31
Last Quarter
Jun 8
New
Jun 16
First Quarter
Jun 23
Full

Hourly Weather History & Observations

Time (EDT) Temp. Windchill Dew Point Humidity Pressure Visibility Wind Dir Wind Speed Gust Speed Precip Events Conditions
12:04 AM 41.0 °F 35.8 °F 35.6 °F 81% 29.87 in 6.0 mi West 8.1 mph 17.3 mph 0.01 in Rain Light Rain
12:52 AM 39.9 °F 36.7 °F 36.0 °F 86% 29.87 in 6.0 mi West 4.6 mph - 0.04 in Rain Light Rain
1:32 AM 39.2 °F 32.5 °F 35.6 °F 87% 29.85 in 5.0 mi West 10.4 mph 19.6 mph 0.06 in Rain Light Rain
1:49 AM 39.2 °F 34.2 °F 33.8 °F 81% 29.85 in 7.0 mi Variable 6.9 mph - 0.07 in Rain Light Rain
1:52 AM 39.9 °F 34.5 °F 35.1 °F 83% 29.86 in 8.0 mi West 8.1 mph - 0.07 in Rain Light Rain
2:52 AM 42.1 °F 34.5 °F 35.1 °F 76% 29.85 in 10.0 mi West 15.0 mph 28.8 mph 0.01 in Rain Light Rain
3:52 AM 43.0 °F 37.7 °F 35.1 °F 74% 29.84 in 10.0 mi West 9.2 mph - 0.00 in   Overcast
4:52 AM 43.0 °F 39.5 °F 34.0 °F 71% 29.84 in 10.0 mi Variable 5.8 mph 16.1 mph N/A   Overcast
5:52 AM 44.1 °F 38.6 °F 35.1 °F 71% 29.86 in 10.0 mi West 10.4 mph 20.7 mph N/A   Overcast
6:52 AM 44.1 °F 40.1 °F 34.0 °F 68% 29.88 in 10.0 mi West 6.9 mph 21.9 mph N/A   Overcast
7:52 AM 45.0 °F 40.1 °F 36.0 °F 71% 29.90 in 10.0 mi West 9.2 mph - N/A   Overcast
8:52 AM 45.0 °F 40.6 °F 37.0 °F 74% 29.92 in 7.0 mi West 8.1 mph - 0.00 in Rain Light Rain
9:52 AM 48.0 °F - 37.9 °F 68% 29.93 in 10.0 mi Variable 4.6 mph - 0.01 in   Overcast
10:02 AM 48.2 °F - 37.4 °F 66% 29.91 in 10.0 mi West 12.7 mph 18.4 mph N/A   Overcast
10:16 AM 50.0 °F - 35.6 °F 58% 29.91 in 10.0 mi West 8.1 mph 21.9 mph 0.00 in Rain Light Rain
10:52 AM 46.9 °F - 39.0 °F 74% 29.94 in 10.0 mi Variable 4.6 mph - 0.02 in Rain Light Rain
11:52 AM 48.0 °F - 37.9 °F 68% 29.95 in 8.0 mi NW 9.2 mph - 0.00 in Rain Light Rain
12:52 PM 53.1 °F - 37.9 °F 57% 29.96 in 10.0 mi NNW 8.1 mph - 0.00 in   Mostly Cloudy
1:52 PM 50.0 °F - 37.9 °F 63% 29.98 in 10.0 mi Calm Calm - 0.00 in Rain Light Rain
2:50 PM 50.0 °F - 37.4 °F 62% 29.97 in 10.0 mi West 9.2 mph 20.7 mph 0.00 in Rain Light Rain
2:52 PM 50.0 °F - 37.9 °F 63% 29.99 in 10.0 mi West 10.4 mph 20.7 mph 0.00 in Rain Light Rain
2:59 PM 50.0 °F - 37.4 °F 62% 29.98 in 10.0 mi West 11.5 mph 18.4 mph 0.00 in Rain Light Rain
3:20 PM 48.2 °F - 39.2 °F 71% 30.00 in 9.0 mi NNW 8.1 mph - 0.01 in Rain Light Rain
3:31 PM 48.2 °F - 39.2 °F 71% 30.01 in 10.0 mi North 4.6 mph - 0.01 in Rain Light Rain
3:52 PM 48.9 °F - 39.9 °F 71% 30.03 in 10.0 mi West 3.5 mph - 0.01 in   Overcast
4:52 PM 48.9 °F - 39.0 °F 69% 30.06 in 9.0 mi West 6.9 mph - 0.00 in Rain Light Rain
5:52 PM 46.9 °F - 41.0 °F 80% 30.08 in 10.0 mi West 6.9 mph - 0.02 in Rain Light Rain
6:52 PM 48.9 °F - 39.9 °F 71% 30.10 in 10.0 mi West 4.6 mph - 0.00 in   Mostly Cloudy
7:52 PM 48.0 °F - 37.9 °F 68% 30.11 in 10.0 mi Variable 3.5 mph - N/A   Mostly Cloudy
8:52 PM 44.1 °F - 39.0 °F 82% 30.11 in 10.0 mi Calm Calm - N/A   Partly Cloudy
9:25 PM 42.8 °F - 37.4 °F 81% 30.10 in 1.5 mi Calm Calm - N/A   Partly Cloudy
9:34 PM 41.0 °F - 37.4 °F 87% 30.10 in 4.0 mi Calm Calm - N/A   Clear
9:42 PM 41.0 °F - 35.6 °F 81% 30.10 in 4.0 mi Calm Calm - N/A   Haze
9:44 PM 41.0 °F - 37.4 °F 87% 30.11 in 1.8 mi Calm Calm - N/A   Scattered Clouds
9:50 PM 41.0 °F - 37.4 °F 87% 30.11 in 0.8 mi Calm Calm - N/A   Mist
9:52 PM 39.9 °F - 37.0 °F 89% 30.12 in 0.8 mi Calm Calm - N/A   Mist
10:00 PM 39.2 °F - 37.4 °F 93% 30.11 in 1.2 mi Calm Calm - N/A   Mostly Cloudy
10:10 PM 39.2 °F - 37.4 °F 93% 30.11 in 0.2 mi Calm Calm - N/A Fog Fog
10:22 PM 39.2 °F - 35.6 °F 87% 30.12 in 0.5 mi Calm Calm - N/A Fog Fog
10:52 PM 39.0 °F - 36.0 °F 89% 30.14 in 0.5 mi Calm Calm - N/A Fog Fog
11:19 PM 39.2 °F - 37.4 °F 93% 30.13 in 0.2 mi Calm Calm - N/A Fog Fog
11:29 PM 39.2 °F - 37.4 °F 93% 30.13 in 0.8 mi Calm Calm - N/A   Mist
11:52 PM 39.9 °F - 37.0 °F 89% 30.15 in 0.5 mi Calm Calm - N/A Fog Fog